Wetterdaten: Freitag, 31.10.2014
Datum Zeit Temp. A. Feuchte A. Luftdruck Regen Wind Richtung Richtung Sonnenschein ET UV Solar Taupunkt Windchill Windben Empfang
31.10.2014 00:00 8,9 C 84 % 1026,8 hPa 0,0 l/m 0,0 km/h (0 Bft) SW 220 0 min 0,000 mm 0,0 UV-I 0 W/m 6,3 C 8,9 C 0,0 km/h (0 Bft) 0,00 %
31.10.2014 00:15 8,8 C 84 % 1026,7 hPa 0,0 l/m 0,0 km/h (0 Bft) SW 216 0 min 0,000 mm 0,0 UV-I 0 W/m 6,2 C 8,8 C 0,0 km/h (0 Bft) 0,00 %
31.10.2014 00:30 8,8 C 84 % 1026,6 hPa 0,0 l/m 0,0 km/h (0 Bft) SW 221 0 min 0,000 mm 0,0 UV-I 0 W/m 6,2 C 8,8 C 0,0 km/h (0 Bft) 0,00 %
31.10.2014 00:45 8,8 C 84 % 1026,9 hPa 0,0 l/m 0,0 km/h (0 Bft) SW 221 0 min 0,000 mm 0,0 UV-I 0 W/m 6,2 C 8,8 C 0,0 km/h (0 Bft) 0,00 %
31.10.2014 01:00 8,8 C 84 % 1026,8 hPa 0,0 l/m 0,0 km/h (0 Bft) SW 221 0 min 0,000 mm 0,0 UV-I 0 W/m 6,2 C 8,8 C 0,0 km/h (0 Bft) 0,00 %
31.10.2014 01:15 8,7 C 84 % 1026,9 hPa 0,0 l/m 0,0 km/h (0 Bft) SW 218 0 min 0,000 mm 0,0 UV-I 0 W/m 6,2 C 8,7 C 0,0 km/h (0 Bft) 0,00 %
31.10.2014 01:30 8,7 C 84 % 1026,7 hPa 0,0 l/m 0,0 km/h (0 Bft) SW 218 0 min 0,000 mm 0,0 UV-I 0 W/m 6,2 C 8,7 C 0,0 km/h (0 Bft) 0,00 %
31.10.2014 01:45 8,6 C 84 % 1026,6 hPa 0,0 l/m 0,0 km/h (0 Bft) SW 227 0 min 0,000 mm 0,0 UV-I 0 W/m 6,1 C 8,6 C 0,0 km/h (0 Bft) 0,00 %
31.10.2014 02:00 8,5 C 84 % 1026,5 hPa 0,0 l/m 0,0 km/h (0 Bft) SW 228 0 min 0,000 mm 0,0 UV-I 0 W/m 6,0 C 8,5 C 0,0 km/h (0 Bft) 0,00 %
31.10.2014 02:15 8,4 C 85 % 1026,6 hPa 0,0 l/m 0,0 km/h (0 Bft) SW 228 0 min 0,000 mm 0,0 UV-I 0 W/m 6,0 C 8,4 C 0,0 km/h (0 Bft) 0,00 %
31.10.2014 02:30 8,3 C 85 % 1026,4 hPa 0,0 l/m 0,0 km/h (0 Bft) SW 226 0 min 0,000 mm 0,0 UV-I 0 W/m 5,9 C 8,3 C 0,0 km/h (0 Bft) 0,00 %
31.10.2014 02:45 8,2 C 85 % 1026,5 hPa 0,0 l/m 0,0 km/h (0 Bft) SW 225 0 min 0,000 mm 0,0 UV-I 0 W/m 5,8 C 8,2 C 0,0 km/h (0 Bft) 0,00 %
31.10.2014 03:00 8,0 C 85 % 1026,6 hPa 0,0 l/m 0,0 km/h (0 Bft) SW 225 0 min 0,000 mm 0,0 UV-I 0 W/m 5,6 C 8,0 C 0,0 km/h (0 Bft) 0,00 %
31.10.2014 03:15 7,9 C 85 % 1026,7 hPa 0,0 l/m 0,0 km/h (0 Bft) S-SW 209 0 min 0,000 mm 0,0 UV-I 0 W/m 5,5 C 7,9 C 0,0 km/h (0 Bft) 0,00 %
31.10.2014 03:30 7,9 C 85 % 1026,7 hPa 0,0 l/m 0,0 km/h (0 Bft) S-SW 209 0 min 0,000 mm 0,0 UV-I 0 W/m 5,5 C 7,9 C 0,0 km/h (0 Bft) 0,00 %
31.10.2014 03:45 8,0 C 85 % 1026,7 hPa 0,0 l/m 0,0 km/h (0 Bft) SW 218 0 min 0,000 mm 0,0 UV-I 0 W/m 5,6 C 8,0 C 0,0 km/h (0 Bft) 0,00 %
31.10.2014 04:00 8,1 C 85 % 1026,8 hPa 0,0 l/m 0,0 km/h (0 Bft) S-SW 202 0 min 0,000 mm 0,0 UV-I 0 W/m 5,7 C 8,1 C 0,0 km/h (0 Bft) 0,00 %
31.10.2014 04:15 8,0 C 85 % 1026,6 hPa 0,0 l/m 0,0 km/h (0 Bft) W-SW 248 0 min 0,000 mm 0,0 UV-I 0 W/m 5,6 C 8,0 C 0,0 km/h (0 Bft) 0,00 %
31.10.2014 04:30 7,8 C 85 % 1026,8 hPa 0,0 l/m 0,0 km/h (0 Bft) SW 216 0 min 0,000 mm 0,0 UV-I 0 W/m 5,4 C 7,8 C 0,0 km/h (0 Bft) 0,00 %
31.10.2014 04:45 7,7 C 84 % 1026,9 hPa 0,0 l/m 0,0 km/h (0 Bft) SW 227 0 min 0,000 mm 0,0 UV-I 0 W/m 5,2 C 7,7 C 0,0 km/h (0 Bft) 0,00 %
31.10.2014 05:00 7,6 C 84 % 1026,9 hPa 0,0 l/m 0,0 km/h (0 Bft) S-SW 206 0 min 0,000 mm 0,0 UV-I 0 W/m 5,1 C 7,6 C 0,0 km/h (0 Bft) 0,00 %
31.10.2014 05:15 7,5 C 84 % 1026,7 hPa 0,0 l/m 0,0 km/h (0 Bft) S-SW 209 0 min 0,000 mm 0,0 UV-I 0 W/m 5,0 C 7,5 C 0,0 km/h (0 Bft) 0,00 %
31.10.2014 05:30 7,5 C 84 % 1026,4 hPa 0,0 l/m 0,0 km/h (0 Bft) S-SW 205 0 min 0,000 mm 0,0 UV-I 0 W/m 5,0 C 7,5 C 0,0 km/h (0 Bft) 0,00 %
31.10.2014 05:45 7,5 C 84 % 1026,5 hPa 0,0 l/m 0,0 km/h (0 Bft) S-SW 205 0 min 0,000 mm 0,0 UV-I 0 W/m 5,0 C 7,5 C 0,0 km/h (0 Bft) 0,00 %
31.10.2014 06:00 7,5 C 84 % 1026,6 hPa 0,0 l/m 0,0 km/h (0 Bft) S-SW 205 0 min 0,000 mm 0,0 UV-I 0 W/m 5,0 C 7,5 C 0,0 km/h (0 Bft) 0,00 %
31.10.2014 06:15 7,6 C 84 % 1026,5 hPa 0,0 l/m 0,0 km/h (0 Bft) S-SW 196 0 min 0,000 mm 0,0 UV-I 0 W/m 5,1 C 7,6 C 0,0 km/h (0 Bft) 0,00 %
31.10.2014 06:30 7,6 C 84 % 1026,6 hPa 0,0 l/m 0,0 km/h (0 Bft) S-SW 197 0 min 0,000 mm 0,0 UV-I 0 W/m 5,1 C 7,6 C 0,0 km/h (0 Bft) 0,00 %
31.10.2014 06:45 7,5 C 84 % 1026,9 hPa 0,0 l/m 0,0 km/h (0 Bft) W-NW 298 0 min 0,000 mm 0,0 UV-I 0 W/m 5,0 C 7,5 C 0,0 km/h (0 Bft) 0,00 %
31.10.2014 07:00 7,3 C 84 % 1027,0 hPa 0,0 l/m 0,0 km/h (0 Bft) S-SW 198 0 min 0,000 mm 0,0 UV-I 0 W/m 4,8 C 7,3 C 0,0 km/h (0 Bft) 0,00 %
31.10.2014 07:15 7,2 C 84 % 1027,5 hPa 0,0 l/m 0,0 km/h (0 Bft) S 178 0 min 0,000 mm 0,0 UV-I 32 W/m 4,7 C 7,2 C 0,0 km/h (0 Bft) 0,00 %
31.10.2014 07:30 7,3 C 84 % 1027,6 hPa 0,0 l/m 0,0 km/h (0 Bft) S-SO 149 0 min 0,000 mm 0,0 UV-I 28 W/m 4,8 C 7,3 C 0,0 km/h (0 Bft) 0,00 %
31.10.2014 07:45 7,4 C 84 % 1027,7 hPa 0,0 l/m 0,0 km/h (0 Bft) SW 223 15 min 0,000 mm 0,0 UV-I 98 W/m 4,9 C 7,4 C 0,0 km/h (0 Bft) 0,00 %
31.10.2014 08:00 7,3 C 84 % 1027,6 hPa 0,0 l/m 0,0 km/h (0 Bft) W-SW 255 15 min 0,000 mm 1,0 UV-I 158 W/m 4,8 C 7,3 C 0,0 km/h (0 Bft) 0,00 %
31.10.2014 08:15 7,7 C 83 % 1027,7 hPa 0,0 l/m 0,0 km/h (0 Bft) W 276 15 min 0,000 mm 1,0 UV-I 186 W/m 5,0 C 7,7 C 0,0 km/h (0 Bft) 0,00 %
31.10.2014 08:30 8,0 C 83 % 1027,5 hPa 0,0 l/m 0,0 km/h (0 Bft) S-SW 211 15 min 0,000 mm 1,0 UV-I 257 W/m 5,3 C 8,0 C 0,0 km/h (0 Bft) 0,00 %
31.10.2014 08:45 8,6 C 81 % 1027,1 hPa 0,0 l/m 0,0 km/h (0 Bft) W 267 15 min 0,000 mm 1,0 UV-I 423 W/m 5,5 C 8,6 C 0,0 km/h (0 Bft) 0,00 %
31.10.2014 09:00 9,2 C 78 % 1027,1 hPa 0,0 l/m 0,0 km/h (0 Bft) W-SW 243 15 min 0,000 mm 1,0 UV-I 448 W/m 5,6 C 9,2 C 0,0 km/h (0 Bft) 0,00 %
31.10.2014 09:15 9,8 C 75 % 1026,7 hPa 0,0 l/m 0,0 km/h (0 Bft) SW 215 15 min 0,000 mm 2,0 UV-I 573 W/m 5,6 C 9,8 C 0,0 km/h (0 Bft) 0,00 %
31.10.2014 09:30 10,0 C 74 % 1026,7 hPa 0,0 l/m 0,0 km/h (0 Bft) O-SO 121 15 min 0,000 mm 2,0 UV-I 565 W/m 5,6 C 10,0 C 0,0 km/h (0 Bft) 0,00 %
31.10.2014 09:45 10,7 C 70 % 1026,7 hPa 0,0 l/m 0,0 km/h (0 Bft) W-SW 252 15 min 0,000 mm 1,0 UV-I 505 W/m 5,5 C 10,7 C 0,0 km/h (0 Bft) 0,00 %
31.10.2014 10:00 9,6 C 74 % 1027,0 hPa 0,0 l/m 0,0 km/h (0 Bft) N-NW 330 15 min 0,000 mm 2,0 UV-I 599 W/m 5,2 C 9,6 C 0,0 km/h (0 Bft) 0,00 %
31.10.2014 10:15 9,1 C 76 % 1027,4 hPa 0,0 l/m 0,4 km/h (0 Bft) NW 322 15 min 0,000 mm 1,0 UV-I 488 W/m 5,1 C 9,1 C 4,0 km/h (1 Bft) 0,00 %
31.10.2014 10:30 8,8 C 77 % 1027,3 hPa 0,0 l/m 0,0 km/h (0 Bft) S-SW 193 15 min 0,000 mm 2,0 UV-I 696 W/m 5,0 C 8,8 C 0,0 km/h (0 Bft) 0,00 %
31.10.2014 10:45 9,4 C 74 % 1026,8 hPa 0,0 l/m 0,0 km/h (0 Bft) N-NO 25 15 min 0,000 mm 2,0 UV-I 710 W/m 5,0 C 9,4 C 0,0 km/h (0 Bft) 0,00 %
31.10.2014 11:00 9,7 C 73 % 1027,4 hPa 0,0 l/m 0,0 km/h (0 Bft) O-NO 69 15 min 0,000 mm 2,0 UV-I 641 W/m 5,1 C 9,7 C 0,0 km/h (0 Bft) 0,00 %
31.10.2014 11:15 9,2 C 75 % 1027,1 hPa 0,0 l/m 0,0 km/h (0 Bft) N-NW 330 15 min 0,000 mm 2,0 UV-I 824 W/m 5,0 C 9,2 C 0,0 km/h (0 Bft) 0,00 %
31.10.2014 11:30 9,6 C 74 % 1027,4 hPa 0,0 l/m 1,4 km/h (1 Bft) NW 313 15 min 0,000 mm 2,0 UV-I 735 W/m 5,2 C 9,6 C 4,0 km/h (1 Bft) 0,00 %
31.10.2014 11:45 9,2 C 75 % 1027,2 hPa 0,0 l/m 0,0 km/h (0 Bft) NW 321 15 min 0,000 mm 2,0 UV-I 802 W/m 5,0 C 9,2 C 0,0 km/h (0 Bft) 0,00 %
31.10.2014 12:00 9,8 C 73 % 1027,1 hPa 0,0 l/m 0,0 km/h (0 Bft) N-NO 33 15 min 0,000 mm 2,0 UV-I 828 W/m 5,2 C 9,8 C 0,0 km/h (0 Bft) 0,00 %
31.10.2014 12:15 10,0 C 72 % 1027,1 hPa 0,0 l/m 0,0 km/h (0 Bft) O 97 15 min 0,000 mm 2,0 UV-I 730 W/m 5,2 C 10,0 C 0,0 km/h (0 Bft) 0,00 %
31.10.2014 12:30 10,6 C 70 % 1027,1 hPa 0,0 l/m 1,4 km/h (1 Bft) O-SO 109 15 min 0,000 mm 2,0 UV-I 573 W/m 5,4 C 10,6 C 4,0 km/h (1 Bft) 0,00 %
31.10.2014 12:45 10,7 C 70 % 1026,8 hPa 0,0 l/m 0,0 km/h (0 Bft) O-SO 114 15 min 0,000 mm 1,0 UV-I 465 W/m 5,5 C 10,7 C 0,0 km/h (0 Bft) 0,00 %
31.10.2014 13:00 10,9 C 69 % 1026,5 hPa 0,0 l/m 0,0 km/h (0 Bft) S-SW 212 15 min 0,000 mm 1,0 UV-I 539 W/m 5,4 C 10,9 C 0,0 km/h (0 Bft) 0,00 %
31.10.2014 13:15 11,6 C 67 % 1026,2 hPa 0,0 l/m 0,0 km/h (0 Bft) S-SW 212 15 min 0,000 mm 2,0 UV-I 579 W/m 5,7 C 11,6 C 0,0 km/h (0 Bft) 0,00 %
31.10.2014 13:30 11,6 C 67 % 1026,3 hPa 0,0 l/m 0,0 km/h (0 Bft) S-SW 213 15 min 0,000 mm 1,0 UV-I 524 W/m 5,7 C 11,6 C 0,0 km/h (0 Bft) 0,00 %
31.10.2014 13:45 11,7 C 66 % 1025,8 hPa 0,0 l/m 0,0 km/h (0 Bft) S 175 15 min 0,000 mm 2,0 UV-I 585 W/m 5,6 C 11,7 C 0,0 km/h (0 Bft) 0,00 %
31.10.2014 14:00 11,2 C 69 % 1025,8 hPa 0,0 l/m 0,0 km/h (0 Bft) N-NO 26 15 min 0,000 mm 1,0 UV-I 526 W/m 5,7 C 11,2 C 0,0 km/h (0 Bft) 0,00 %
31.10.2014 14:15 10,9 C 69 % 1025,2 hPa 0,0 l/m 0,0 km/h (0 Bft) S 172 15 min 0,000 mm 1,0 UV-I 475 W/m 5,4 C 10,9 C 0,0 km/h (0 Bft) 0,00 %
31.10.2014 14:30 11,0 C 69 % 1025,1 hPa 0,0 l/m 0,0 km/h (0 Bft) S-SW 206 15 min 0,000 mm 1,0 UV-I 421 W/m 5,5 C 11,0 C 0,0 km/h (0 Bft) 0,00 %
31.10.2014 14:45 10,9 C 69 % 1025,0 hPa 0,0 l/m 0,0 km/h (0 Bft) S 182 15 min 0,000 mm 1,0 UV-I 364 W/m 5,4 C 10,9 C 0,0 km/h (0 Bft) 0,00 %
31.10.2014 15:00 10,9 C 69 % 1025,1 hPa 0,0 l/m 0,0 km/h (0 Bft) S 178 15 min 0,000 mm 1,0 UV-I 315 W/m 5,4 C 10,9 C 0,0 km/h (0 Bft) 0,00 %
31.10.2014 15:15 10,8 C 70 % 1025,2 hPa 0,0 l/m 0,0 km/h (0 Bft) S-SW 198 15 min 0,000 mm 1,0 UV-I 236 W/m 5,6 C 10,8 C 0,0 km/h (0 Bft) 0,00 %
31.10.2014 15:30 10,7 C 69 % 1025,4 hPa 0,0 l/m 0,0 km/h (0 Bft) S 177 15 min 0,000 mm 1,0 UV-I 180 W/m 5,2 C 10,7 C 0,0 km/h (0 Bft) 0,00 %
31.10.2014 15:45 10,4 C 72 % 1026,0 hPa 0,0 l/m 0,0 km/h (0 Bft) S 186 15 min 0,000 mm 1,0 UV-I 115 W/m 5,6 C 10,4 C 0,0 km/h (0 Bft) 0,00 %
31.10.2014 16:00 10,0 C 72 % 1026,2 hPa 0,0 l/m 0,0 km/h (0 Bft) S 176 0 min 0,000 mm 0,0 UV-I 54 W/m 5,2 C 10,0 C 0,0 km/h (0 Bft) 0,00 %
31.10.2014 16:15 9,6 C 74 % 1026,2 hPa 0,0 l/m 0,0 km/h (0 Bft) S 175 0 min 0,000 mm 0,0 UV-I 3 W/m 5,2 C 9,6 C 0,0 km/h (0 Bft) 0,00 %
31.10.2014 16:30 9,0 C 77 % 1026,2 hPa 0,0 l/m 0,0 km/h (0 Bft) S-SO 156 0 min 0,000 mm 0,0 UV-I 0 W/m 5,2 C 9,0 C 0,0 km/h (0 Bft) 0,00 %
31.10.2014 16:45 8,6 C 80 % 1026,4 hPa 0,0 l/m 0,0 km/h (0 Bft) S 169 0 min 0,000 mm 0,0 UV-I 0 W/m 5,3 C 8,6 C 0,0 km/h (0 Bft) 0,00 %
31.10.2014 17:00 8,1 C 81 % 1026,5 hPa 0,0 l/m 0,0 km/h (0 Bft) S 184 0 min 0,000 mm 0,0 UV-I 0 W/m 5,0 C 8,1 C 0,0 km/h (0 Bft) 0,00 %
31.10.2014 17:15 7,6 C 81 % 1026,5 hPa 0,0 l/m 0,0 km/h (0 Bft) S 184 0 min 0,000 mm 0,0 UV-I 0 W/m 4,6 C 7,6 C 0,0 km/h (0 Bft) 0,00 %
31.10.2014 17:30 7,1 C 82 % 1026,4 hPa 0,0 l/m 0,0 km/h (0 Bft) S 184 0 min 0,000 mm 0,0 UV-I 0 W/m 4,2 C 7,1 C 0,0 km/h (0 Bft) 0,00 %
31.10.2014 17:45 6,8 C 83 % 1026,5 hPa 0,0 l/m 0,0 km/h (0 Bft) S 184 0 min 0,000 mm 0,0 UV-I 0 W/m 4,1 C 6,8 C 0,0 km/h (0 Bft) 0,00 %
31.10.2014 18:00 6,6 C 84 % 1027,0 hPa 0,0 l/m 0,0 km/h (0 Bft) S 184 0 min 0,000 mm 0,0 UV-I 0 W/m 4,1 C 6,6 C 0,0 km/h (0 Bft) 0,00 %
31.10.2014 18:15 6,3 C 83 % 1026,8 hPa 0,0 l/m 0,0 km/h (0 Bft) S 185 0 min 0,000 mm 0,0 UV-I 0 W/m 3,6 C 6,3 C 0,0 km/h (0 Bft) 0,00 %
31.10.2014 18:30 6,3 C 85 % 1026,7 hPa 0,0 l/m 0,0 km/h (0 Bft) S 185 0 min 0,000 mm 0,0 UV-I 0 W/m 4,0 C 6,3 C 0,0 km/h (0 Bft) 0,00 %
31.10.2014 18:45 6,3 C 85 % 1026,9 hPa 0,0 l/m 0,0 km/h (0 Bft) S 184 0 min 0,000 mm 0,0 UV-I 0 W/m 4,0 C 6,3 C 0,0 km/h (0 Bft) 0,00 %
31.10.2014 19:00 6,1 C 85 % 1026,6 hPa 0,0 l/m 0,0 km/h (0 Bft) S 184 0 min 0,000 mm 0,0 UV-I 0 W/m 3,8 C 6,1 C 0,0 km/h (0 Bft) 0,00 %
31.10.2014 19:15 6,1 C 85 % 1026,8 hPa 0,0 l/m 0,0 km/h (0 Bft) S 184 0 min 0,000 mm 0,0 UV-I 0 W/m 3,8 C 6,1 C 0,0 km/h (0 Bft) 0,00 %
31.10.2014 19:30 6,1 C 85 % 1026,9 hPa 0,0 l/m 0,0 km/h (0 Bft) S 174 0 min 0,000 mm 0,0 UV-I 0 W/m 3,8 C 6,1 C 0,0 km/h (0 Bft) 0,00 %
31.10.2014 19:45 5,9 C 85 % 1026,8 hPa 0,0 l/m 0,0 km/h (0 Bft) S 174 0 min 0,000 mm 0,0 UV-I 0 W/m 3,6 C 5,9 C 0,0 km/h (0 Bft) 0,00 %
31.10.2014 20:00 5,8 C 85 % 1026,8 hPa 0,0 l/m 0,0 km/h (0 Bft) S 176 0 min 0,000 mm 0,0 UV-I 0 W/m 3,5 C 5,8 C 0,0 km/h (0 Bft) 0,00 %
31.10.2014 20:15 5,8 C 85 % 1026,8 hPa 0,0 l/m 0,0 km/h (0 Bft) S 176 0 min 0,000 mm 0,0 UV-I 0 W/m 3,5 C 5,8 C 0,0 km/h (0 Bft) 0,00 %
31.10.2014 20:30 5,7 C 85 % 1026,9 hPa 0,0 l/m 0,0 km/h (0 Bft) S 176 0 min 0,000 mm 0,0 UV-I 0 W/m 3,4 C 5,7 C 0,0 km/h (0 Bft) 0,00 %
31.10.2014 20:45 5,6 C 85 % 1026,7 hPa 0,0 l/m 0,0 km/h (0 Bft) S 176 0 min 0,000 mm 0,0 UV-I 0 W/m 3,3 C 5,6 C 0,0 km/h (0 Bft) 0,00 %
31.10.2014 21:00 5,7 C 85 % 1026,7 hPa 0,0 l/m 0,0 km/h (0 Bft) S 176 0 min 0,000 mm 0,0 UV-I 0 W/m 3,4 C 5,7 C 0,0 km/h (0 Bft) 0,00 %
31.10.2014 21:15 5,7 C 85 % 1026,8 hPa 0,0 l/m 0,0 km/h (0 Bft) S 176 0 min 0,000 mm 0,0 UV-I 0 W/m 3,4 C 5,7 C 0,0 km/h (0 Bft) 0,00 %
31.10.2014 21:30 5,4 C 86 % 1026,8 hPa 0,0 l/m 0,0 km/h (0 Bft) S 176 0 min 0,000 mm 0,0 UV-I 0 W/m 3,3 C 5,4 C 0,0 km/h (0 Bft) 0,00 %
31.10.2014 21:45 5,1 C 86 % 1027,0 hPa 0,0 l/m 0,0 km/h (0 Bft) S 176 0 min 0,000 mm 0,0 UV-I 0 W/m 3,0 C 5,1 C 0,0 km/h (0 Bft) 0,00 %
31.10.2014 22:00 5,1 C 86 % 1026,9 hPa 0,0 l/m 0,0 km/h (0 Bft) S 176 0 min 0,000 mm 0,0 UV-I 0 W/m 3,0 C 5,1 C 0,0 km/h (0 Bft) 0,00 %
31.10.2014 22:15 4,9 C 86 % 1027,0 hPa 0,0 l/m 0,0 km/h (0 Bft) S 176 0 min 0,000 mm 0,0 UV-I 0 W/m 2,8 C 4,9 C 0,0 km/h (0 Bft) 0,00 %
31.10.2014 22:30 4,7 C 86 % 1026,8 hPa 0,0 l/m 0,0 km/h (0 Bft) S 176 0 min 0,000 mm 0,0 UV-I 0 W/m 2,6 C 4,7 C 0,0 km/h (0 Bft) 0,00 %
31.10.2014 22:45 4,6 C 86 % 1026,9 hPa 0,0 l/m 0,0 km/h (0 Bft) S 176 0 min 0,000 mm 0,0 UV-I 0 W/m 2,5 C 4,6 C 0,0 km/h (0 Bft) 0,00 %
31.10.2014 23:00 4,7 C 86 % 1026,6 hPa 0,0 l/m 0,0 km/h (0 Bft) S 176 0 min 0,000 mm 0,0 UV-I 0 W/m 2,6 C 4,7 C 0,0 km/h (0 Bft) 0,00 %
31.10.2014 23:15 4,7 C 86 % 1026,8 hPa 0,0 l/m 0,0 km/h (0 Bft) S-SW 192 0 min 0,000 mm 0,0 UV-I 0 W/m 2,6 C 4,7 C 0,0 km/h (0 Bft) 0,00 %
31.10.2014 23:30 4,5 C 87 % 1026,9 hPa 0,0 l/m 0,0 km/h (0 Bft) S-SW 192 0 min 0,000 mm 0,0 UV-I 0 W/m 2,5 C 4,5 C 0,0 km/h (0 Bft) 0,00 %
31.10.2014 23:45 4,1 C 86 % 1027,1 hPa 0,0 l/m 0,0 km/h (0 Bft) S 175 0 min 0,000 mm 0,0 UV-I 0 W/m 2,0 C 4,1 C 0,0 km/h (0 Bft) 0,00 %
_ Min-Zeit 23:45 13:45 14:45 - 00:00 - - - - - - 23:45 23:45 00:00 00:00
Minimum _ 4,1 C 66 % 1025,0 hPa - 0,0 km/h (0 Bft) - - - - - - 2,0 C 4,1 C 0,0 km/h (0 Bft) 0,00 %
_ Max-Zeit 13:45 23:30 07:45 00:00 11:30 - - 07:45 00:00 09:15 12:00 00:00 13:45 10:15 00:00
Maximum _ 11,7 C 87 % 1027,7 hPa 0,0 l/m 1,4 km/h
NW (1 Bft)
- - 15 min 0,000 mm 2,0 UV-I 828 W/m 6,3 C 11,7 C 4,0 km/h
NW (1 Bft)
0,00 %
Durchschnitt _ 8,1 C 80 % 1026,7 hPa #0,0 l/m 0,0 km/h (0 Bft) O-SO - #8:15 h #0,000 mm 1,4 UV-I 440 W/m 4,8 C 8,1 C 0,1 km/h (0 Bft) 0,00 %